Weather History for PAMC - October, 2012

Change the Weather History Date:

Saturday, October 13, 2012

  Actual Average Record
Temperature  
Mean Temperature 26 °F 28 °F  
Max Temperature 32 °F 34 °F 58 °F (1969)
Min Temperature 20 °F 21 °F -5 °F (2008)
Degree Days  
Heating Degree Days 39 38  
Month to date heating degree days 349 432  
Since 1 July heating degree days 1570 1542  
Cooling Degree Days 0    
Month to date cooling degree days 0  
Year to date cooling degree days 4 16  
Moisture  
Dew Point 13 °F    
Average Humidity 0    
Maximum Humidity 0    
Minimum Humidity 0    
Precipitation  
Precipitation 0.00 in 0.05 in 0.34 in (1976)
Month to date precipitation 1.79 0.73  
Year to date precipitation 20.49 14.59  
Snow  
Snow 0.00 in 0.30 in 4.00 in (1976)
Month to date snowfall 0.4 3.0  
Since 1 July snowfall 2.0 4.5  
Since 1 September snowfall 2.0 4.5  
Snow Depth 0.00 in    
Sea Level Pressure  
Sea Level Pressure 29.42 in    
Wind  
Wind Speed 14 mph (NNE)    
Max Wind Speed 22 mph    
Max Gust Speed 29 mph    
Visibility 10 miles    
Events      
T = Trace of Precipitation, MM = Missing Value Source: NWS Daily Summary

Daily Weather History Graph

Daily Weather History Graph

Search for Another Location

Airport or City:

Trip Planner

Search our weather history database for the weather conditions in past years. The results will help you decide how hot, cold, wet, or windy it might be!

Date:

Astronomy

Oct. 13, 2012 Rise Set
Actual Time 9:05 AM AKDT 7:09 PM AKDT
Civil Twilight 8:19 AM AKDT 7:56 PM AKDT
Nautical Twilight 7:26 AM AKDT 8:49 PM AKDT
Astronomical Twilight 6:32 AM AKDT 9:42 PM AKDT
Moon 6:44 AM AKDT (10/13) 6:13 PM AKDT (10/13)
Length of Visible Light 11h 37m
Length of Day
10h 04m
Waning Crescent, 4% of the Moon is Illuminated
Oct 13
Waning Crescent
Oct 15
New
Oct 21
First Quarter
Oct 29
Full
Nov 6
Last Quarter

Hourly Weather History & Observations

Time (AKDT) Temp. Windchill Dew Point Humidity Pressure Visibility Wind Dir Wind Speed Gust Speed Precip Events Conditions
12:53 AM 24.1 °F 12.5 °F 12.9 °F 62% 29.43 in 10.0 mi North 12.7 mph 19.6 mph N/A   Clear
1:53 AM 23.0 °F 9.2 °F 12.9 °F 65% 29.43 in 10.0 mi NNE 17.3 mph 23.0 mph N/A   Mostly Cloudy
2:53 AM 21.9 °F 9.2 °F 12.9 °F 68% 29.42 in 10.0 mi NNE 13.8 mph - N/A   Partly Cloudy
4:53 AM 19.9 °F 12.1 °F 12.0 °F 71% 29.42 in 10.0 mi NNE 5.8 mph - N/A   Partly Cloudy
6:53 AM 21.9 °F 9.8 °F 12.9 °F 68% 29.40 in 10.0 mi North 12.7 mph 20.7 mph N/A   Scattered Clouds
7:53 AM 23.0 °F 9.2 °F 12.9 °F 65% 29.41 in 10.0 mi North 17.3 mph 23.0 mph N/A   Scattered Clouds
8:53 AM 23.0 °F 10.1 °F 12.9 °F 65% 29.42 in 10.0 mi North 15.0 mph 24.2 mph N/A   Partly Cloudy
9:53 AM 23.0 °F 10.6 °F 12.0 °F 63% 29.42 in 10.0 mi NNE 13.8 mph 20.7 mph N/A   Scattered Clouds
10:53 AM 25.0 °F 12.6 °F 12.9 °F 60% 29.43 in 10.0 mi NNE 15.0 mph 24.2 mph N/A   Partly Cloudy
11:53 AM 26.1 °F 12.3 °F 12.9 °F 58% 29.42 in 10.0 mi NNE 19.6 mph 28.8 mph N/A   Partly Cloudy
12:53 PM 28.0 °F 16.1 °F 12.9 °F 53% 29.42 in 10.0 mi North 16.1 mph 23.0 mph N/A   Partly Cloudy
1:53 PM 30.0 °F 19.5 °F 14.0 °F 51% 29.41 in 10.0 mi NNE 13.8 mph 20.7 mph N/A   Partly Cloudy
2:53 PM 30.0 °F 17.9 °F 12.9 °F 49% 29.41 in 10.0 mi North 18.4 mph 25.3 mph N/A   Partly Cloudy
3:53 PM 32.0 °F 21.2 °F 12.9 °F 45% 29.41 in 10.0 mi NE 16.1 mph 24.2 mph N/A   Mostly Cloudy
4:53 PM 32.0 °F 20.1 °F 12.0 °F 44% 29.41 in 10.0 mi NE 19.6 mph 27.6 mph N/A   Scattered Clouds
5:53 PM 30.9 °F 19.8 °F 12.0 °F 46% 29.42 in 10.0 mi NNE 16.1 mph 24.2 mph N/A   Scattered Clouds
6:53 PM 30.0 °F 21.1 °F 14.0 °F 51% 29.42 in 10.0 mi NNE 10.4 mph - N/A   Partly Cloudy
7:53 PM 28.9 °F 18.6 °F 12.0 °F 49% 29.41 in 10.0 mi NE 12.7 mph 20.7 mph N/A   Clear
9:53 PM 27.0 °F 18.0 °F 10.9 °F 51% 29.42 in 10.0 mi NNE 9.2 mph - N/A   Clear
10:53 PM 25.0 °F 16.3 °F 12.0 °F 58% 29.41 in 10.0 mi NNE 8.1 mph - N/A   Clear
11:53 PM 23.0 °F 13.1 °F 12.0 °F 63% 29.41 in 10.0 mi North 9.2 mph - N/A   Clear